Wind_Speed
44 42 44 45 42 40 40 38 36 36 30 29 21 26 27 23 23 27 28 25 26 27 27 23 22 19 20 16 17 16 14 12 12 8 8 12 12 12 15 16 16 17 13
48 45 44 46 46 44 43 42 40 37 34 36 34 27 30 27 22 27 32 31 29 30 28 28 26 25 24 22 21 18 18 16 16 15 12 13 17 15 13 15 19 11 13
43 45 45 44 47 47 45 44 44 42 40 38 36 37 34 33 30 27 30 32 32 31 32 30 29 31 29 26 28 26 22 20 21 23 21 19 20 18 14 12 12 9 10
44 43 44 45 46 46 46 45 44 45 43 42 41 41 41 39 37 33 31 32 34 33 34 37 34 32 33 31 30 30 28 24 25 27 25 23 16 19 17 14 14 13 13
44 45 46 44 44 44 44 45 45 44 44 43 43 42 42 42 41 39 36 35 35 36 35 39 40 39 37 35 32 30 31 33 29 27 26 22 20 21 23 21 18 13 14
44 47 46 44 43 44 45 46 45 45 43 44 45 45 44 44 44 41 39 38 39 38 39 39 43 43 42 38 35 34 32 33 37 36 30 27 23 25 22 20 17 14 17
43 43 46 47 46 46 45 45 47 47 45 45 45 45 47 48 47 45 43 43 40 40 41 42 43 47 46 45 43 40 38 35 36 34 35 33 27 25 25 25 22 24 25
41 41 41 45 47 46 45 45 45 47 49 49 48 47 48 50 50 47 44 44 44 44 45 45 45 46 44 46 46 45 44 43 42 40 37 33 31 27 28 28 29 29 28
38 43 42 42 45 47 48 47 46 45 47 51 51 52 53 54 53 52 48 45 48 52 50 49 51 51 51 48 45 46 46 47 43 44 43 40 36 35 31 29 33 28 23
30 31 39 44 43 47 49 48 46 46 46 45 48 50 51 52 52 52 48 47 51 52 53 46 55 55 56 54 52 50 51 52 48 46 49 49 46 43 33 29 31 28 20
25 29 30 34 42 45 45 45 45 44 43 45 45 45 45 46 47 47 46 48 54 54 56 53 49 50 52 55 54 55 56 51 52 49 49 53 54 47 35 32 35 31 33
27 30 31 30 33 41 42 44 43 41 40 40 40 41 42 42 41 41 42 43 48 51 50 38 37 36 39 40 50 55 53 52 52 53 51 55 60 44 28 38 32 36 32
27 27 32 31 31 32 35 40 37 38 39 39 38 37 38 33 31 33 33 37 42 48 52 52 38 29 32 33 38 40 49 51 48 44 39 29 21 28 44 37 34 29 28
27 28 30 31 31 29 30 32 34 35 37 35 31 33 27 27 26 27 30 29 31 39 44 43 48 49 51 44 40 34 34 48 48 53 46 37 32 25 32 37 37 29 24
23 27 29 29 29 30 29 27 29 30 31 30 30 22 21 23 23 27 28 24 28 30 28 31 34 36 40 47 46 48 46 39 43 49 51 40 31 29 33 36 22 24 20
21 23 25 25 26 27 31 32 30 31 31 28 23 24 25 25 28 27 28 26 24 29 29 29 27 28 31 34 37 39 43 46 50 54 45 22 26 38 29 23 24 25 24
20 20 21 24 24 26 28 33 29 30 26 26 24 24 25 26 26 28 27 26 26 26 30 31 29 28 28 28 24 23 33 37 43 31 23 24 30 25 23 28 23 25 19
17 19 20 22 23 21 26 20 21 23 23 22 22 25 27 29 28 29 31 31 26 22 18 17 15 13 14 13 7 11 19 19 19 16 18 20 28 21 25 22 23 26 24
18 13 17 16 17 19 19 17 14 12 13 14 10 16 18 17 14 12 10 10 9 6 4 4 5 5 7 10 14 15 12 13 17 12 18 22 12 17 16 23 25 25 22
20 23 16 18 20 18 13 13 13 13 11 7 5 7 8 8 9 10 8 6 7 5 4 2 7 6 5 4 7 8 10 15 17 18 17 17 15 17 22 26 26 26 24
14 20 16 15 13 12 13 13 13 11 12 9 10 9 9 3 1 4 4 4 2 4 7 8 6 6 2 4 5 5 7 12 13 17 17 15 20 24 25 27 27 24 26
14 16 17 17 15 13 11 8 8 8 8 10 9 10 13 8 9 8 4 4 3 4 6 6 6 5 5 6 6 7 8 13 15 15 18 21 22 24 25 24 25 23 20
19 19 22 20 19 15 14 11 11 11 11 9 7 9 9 2 3 3 5 7 7 5 5 6 8 8 8 9 9 9 9 9 14 16 21 20 22 23 21 22 18 22 21
26 22 20 22 17 15 16 14 13 14 11 10 10 7 7 7 4 3 2 3 2 3 4 5 5 3 7 7 9 12 12 10 10 15 18 17 20 23 24 20 21 19 21
33 31 28 26 26 23 21 22 19 15 16 15 13 11 11 10 8 7 2 1 2 2 3 2 3 4 6 9 8 11 11 13 14 17 19 20 22 19 22 23 21 22 20
25 23 22 21 20 18 16 16 16 14 10 8 8 8 8 8 9 10 9 9 7 7 3 3 4 6 5 7 12 14 14 16 18 20 21 22 20 22 18 24 20 22 22
Wind_Direction
224 225 223 225 225 225 225 227 222 216 212 214 227 235 239 247 226 219 225 225 234 235 242 238 238 227 217 213 237 222 226 227 232 233 243 232 236 246 242 244 258 275 274
226 226 228 228 229 230 228 230 232 229 227 224 221 229 240 245 240 227 227 224 227 242 240 242 239 242 234 219 221 236 226 221 229 224 232 237 246 247 253 255 253 248 270
217 223 227 230 230 232 234 232 233 236 234 235 231 229 234 243 247 243 238 238 232 239 250 249 245 245 248 236 229 226 231 230 227 231 230 243 263 262 260 268 262 262 239
214 219 224 226 230 232 235 237 236 235 239 237 238 239 237 244 248 250 246 244 245 238 243 255 254 251 251 251 244 237 231 235 238 237 240 235 240 254 261 258 273 272 271
215 217 227 234 231 231 232 235 239 239 238 239 239 240 242 242 246 247 248 248 248 250 245 246 256 260 258 257 253 247 241 232 233 239 238 239 226 230 234 250 255 255 269
216 219 225 234 235 232 233 233 234 238 239 238 239 241 241 243 245 249 248 247 247 249 251 249 251 257 260 260 257 255 251 245 236 233 238 236 233 225 234 243 238 244 251
219 223 223 230 232 234 236 234 233 235 237 237 239 240 242 244 245 248 249 248 247 248 254 255 255 255 255 255 256 257 257 251 246 242 236 230 233 232 227 230 230 236 242
219 224 225 224 229 232 236 237 235 235 235 237 238 240 242 245 246 247 249 247 248 250 253 256 259 261 250 252 256 253 253 252 245 241 238 235 227 232 231 238 237 246 254
225 224 225 225 227 229 232 237 238 235 234 236 240 241 243 246 249 251 248 242 243 248 251 256 257 259 260 252 247 254 253 257 251 248 242 240 231 230 237 246 257 250 240
228 232 228 227 226 230 232 236 237 238 238 236 240 245 248 250 252 251 245 241 242 244 249 255 257 256 257 255 247 246 251 259 253 248 235 234 235 236 233 244 241 244 242
247 243 239 235 229 228 229 232 235 233 232 238 242 246 248 251 252 251 246 236 242 243 246 253 257 266 254 249 251 247 257 257 258 253 250 238 232 231 233 241 241 240 240
239 241 243 240 234 225 227 227 231 229 232 233 238 241 245 249 251 252 249 244 244 242 246 254 271 268 269 267 252 247 250 252 247 251 251 245 226 214 229 242 241 234 236
241 242 240 242 238 226 224 224 221 226 230 232 231 239 245 240 253 258 259 256 251 246 253 252 251 259 259 262 266 261 246 247 240 238 225 225 220 280 254 246 236 227 233
232 234 233 231 230 227 218 225 225 224 228 227 234 235 240 248 248 250 256 261 261 254 253 260 262 267 267 263 259 256 257 249 251 244 238 232 270 268 238 230 227 216 220
225 226 223 221 222 219 209 215 221 222 224 230 231 233 240 238 237 233 238 249 261 266 264 263 266 268 271 267 265 267 261 258 254 247 235 237 260 241 223 209 214 211 231
227 216 212 207 212 204 213 212 208 215 221 223 221 223 232 226 230 232 235 244 254 249 253 258 266 273 274 276 278 275 265 260 249 235 225 230 226 210 208 218 210 220 216
211 211 207 205 208 202 213 217 217 214 219 221 224 225 231 236 235 242 250 259 266 270 269 269 271 273 272 280 281 278 265 255 230 221 210 209 206 212 204 200 208 211 201
205 209 203 202 203 201 210 216 218 226 227 229 230 235 241 248 257 263 267 273 275 274 269 269 277 287 292 280 276 262 246 239 229 230 228 212 206 184 197 201 211 198 196
192 175 179 184 177 187 183 184 177 191 187 212 232 231 240 247 245 247 250 257 261 259 275 323 320 296 274 266 245 281 259 240 239 235 219 201 180 176 201 200 192 197 199
182 178 157 165 155 146 139 151 166 167 167 151 147 241 233 248 252 250 237 222 215 208 172 347 303 302 307 284 243 224 212 212 227 231 221 200 210 203 187 182 196 198 201
173 166 159 146 141 143 153 161 162 168 175 173 212 226 227 160 255 265 200 244 193 182 199 217 226 207 221 191 161 143 177 174 193 216 190 191 176 169 188 192 196 209 207
157 148 147 148 147 150 145 151 163 168 181 210 225 227 211 174 194 221 204 168 162 156 147 182 213 214 237 242 216 175 212 205 202 226 203 177 179 194 198 204 200 201 208
134 120 118 124 130 115 120 127 128 132 127 126 118 107 118 124 55 169 228 207 182 176 206 233 247 254 251 230 217 192 179 198 208 192 189 192 195 202 208 210 204 206 207
113 107 112 113 119 128 113 111 113 111 108 105 99 86 80 66 89 20 12 9 9 224 311 268 244 183 180 175 165 161 167 171 186 189 183 199 213 211 212 212 218 219 216
106 94 97 103 101 98 105 111 114 110 115 113 120 95 117 113 114 109 95 110 328 284 341 60 91 159 154 162 164 177 186 191 208 200 208 207 208 213 220 218 223 222 221
90 93 99 108 113 109 102 104 106 102 96 113 121 115 107 106 121 136 147 154 168 177 227 270 267 206 202 182 199 208 210 203 211 209 213 216 214 220 228 228 221 225 223
Height
1494 1497 1503 1506 1512 1519 1523 1527 1533 1538 1542 1545 1547 1546 1549 1552 1555 1557 1559 1562 1563 1565 1566 1568 1570 1574 1576 1578 1579 1581 1582 1584 1585 1586 1585 1582 1584 1586 1586 1586 1587 1587 1587
1485 1492 1496 1502 1507 1511 1516 1521 1526 1530 1535 1539 1543 1544 1545 1548 1550 1551 1553 1556 1558 1558 1561 1565 1566 1568 1569 1573 1574 1575 1577 1579 1580 1580 1582 1580 1578 1579 1578 1578 1579 1580 1583
1482 1486 1491 1495 1499 1503 1508 1514 1519 1523 1528 1531 1536 1539 1539 1541 1543 1545 1548 1551 1555 1557 1558 1560 1562 1561 1563 1566 1568 1570 1573 1574 1575 1575 1577 1578 1578 1578 1579 1579 1578 1578 1577
1476 1480 1483 1487 1491 1496 1502 1506 1511 1515 1519 1523 1526 1530 1533 1535 1536 1538 1541 1543 1546 1551 1552 1551 1554 1556 1557 1559 1562 1565 1567 1568 1568 1569 1569 1571 1574 1576 1576 1577 1577 1576 1574
1467 1471 1473 1479 1485 1490 1494 1498 1502 1506 1510 1514 1518 1522 1524 1526 1528 1531 1534 1537 1539 1542 1545 1546 1545 1546 1548 1550 1554 1557 1559 1561 1563 1564 1564 1566 1566 1565 1566 1568 1570 1570 1571
1459 1462 1467 1471 1475 1480 1485 1489 1494 1498 1502 1507 1510 1512 1515 1516 1519 1522 1526 1528 1529 1532 1533 1534 1534 1536 1539 1542 1544 1546 1549 1551 1553 1555 1555 1556 1557 1559 1560 1559 1562 1566 1567
1453 1456 1459 1462 1467 1471 1476 1481 1486 1489 1494 1497 1500 1503 1504 1506 1509 1513 1516 1519 1524 1525 1525 1526 1527 1525 1526 1529 1532 1535 1536 1538 1540 1544 1547 1549 1550 1551 1552 1552 1554 1556 1557
1446 1450 1453 1456 1459 1464 1468 1472 1477 1481 1484 1487 1489 1491 1493 1494 1498 1503 1508 1512 1515 1515 1514 1513 1516 1519 1522 1519 1519 1522 1524 1526 1528 1533 1535 1540 1545 1547 1548 1553 1548 1547 1553
1436 1439 1445 1449 1452 1455 1458 1461 1466 1471 1474 1476 1479 1481 1482 1483 1487 1491 1498 1502 1502 1499 1502 1507 1504 1505 1508 1512 1515 1512 1516 1516 1522 1522 1524 1527 1531 1534 1541 1545 1548 1542 1537
1429 1433 1437 1441 1444 1446 1448 1452 1457 1461 1464 1469 1470 1471 1473 1475 1479 1482 1487 1493 1492 1492 1493 1487 1481 1488 1494 1501 1502 1502 1502 1501 1506 1509 1512 1512 1515 1518 1517 1526 1532 1537 1534
1422 1425 1428 1431 1434 1438 1442 1445 1449 1453 1457 1459 1461 1464 1466 1467 1468 1471 1475 1479 1476 1479 1480 1480 1482 1483 1485 1490 1494 1494 1488 1495 1493 1497 1500 1498 1497 1500 1510 1513 1521 1525 1526
1417 1417 1419 1423 1426 1431 1434 1438 1441 1446 1449 1451 1454 1456 1456 1458 1460 1463 1467 1470 1473 1475 1475 1479 1479 1479 1479 1480 1482 1484 1486 1488 1485 1483 1482 1480 1475 1478 1494 1502 1508 1512 1516
1411 1412 1414 1416 1419 1424 1428 1432 1436 1440 1443 1444 1447 1448 1449 1453 1454 1457 1458 1461 1464 1466 1466 1470 1472 1472 1472 1472 1473 1472 1476 1478 1478 1477 1478 1482 1462 1465 1485 1496 1499 1505 1509
1404 1406 1409 1411 1413 1418 1424 1426 1429 1433 1435 1438 1440 1442 1445 1447 1450 1451 1451 1452 1454 1454 1458 1459 1460 1462 1463 1463 1463 1465 1465 1467 1467 1466 1468 1472 1470 1469 1476 1483 1490 1495 1503
1398 1400 1403 1406 1408 1412 1417 1420 1422 1427 1429 1431 1434 1439 1441 1443 1444 1444 1445 1446 1445 1446 1450 1451 1450 1450 1450 1451 1453 1455 1455 1454 1455 1454 1455 1460 1460 1466 1470 1473 1481 1491 1499
1392 1394 1397 1401 1403 1407 1408 1412 1416 1419 1423 1428 1431 1433 1434 1436 1436 1438 1439 1441 1442 1441 1441 1441 1442 1443 1443 1442 1442 1442 1443 1443 1440 1437 1437 1440 1451 1456 1463 1473 1482 1489 1494
1389 1391 1394 1397 1400 1403 1404 1408 1411 1415 1419 1423 1425 1428 1429 1431 1432 1434 1435 1436 1436 1437 1435 1433 1434 1433 1433 1433 1434 1434 1434 1434 1433 1428 1429 1433 1446 1452 1463 1469 1477 1484 1489
1387 1388 1391 1393 1396 1400 1403 1406 1409 1413 1416 1419 1421 1422 1424 1425 1426 1427 1428 1428 1428 1428 1428 1429 1429 1429 1429 1429 1430 1432 1434 1434 1437 1440 1435 1433 1447 1451 1459 1467 1473 1481 1486
1384 1387 1389 1392 1394 1397 1399 1403 1408 1412 1414 1413 1416 1418 1420 1421 1423 1422 1423 1423 1423 1423 1425 1427 1429 1428 1428 1430 1431 1431 1432 1433 1435 1434 1434 1441 1446 1452 1457 1464 1473 1479 1483
1380 1383 1384 1387 1390 1393 1399 1404 1407 1410 1412 1415 1417 1416 1417 1419 1420 1419 1419 1420 1419 1420 1423 1425 1426 1427 1425 1425 1427 1427 1427 1430 1435 1437 1439 1445 1449 1449 1456 1464 1470 1475 1478
1381 1383 1385 1388 1392 1397 1401 1404 1407 1409 1411 1413 1414 1414 1417 1419 1420 1418 1419 1420 1418 1417 1418 1423 1422 1422 1425 1425 1427 1428 1431 1430 1435 1441 1441 1443 1449 1453 1458 1462 1467 1471 1475
1383 1383 1386 1389 1392 1395 1399 1402 1405 1408 1409 1411 1411 1412 1415 1418 1419 1418 1418 1420 1417 1418 1418 1421 1423 1422 1423 1425 1427 1428 1429 1433 1437 1441 1444 1447 1450 1455 1459 1461 1464 1467 1469
1381 1382 1384 1386 1391 1396 1399 1403 1405 1409 1411 1412 1412 1411 1414 1417 1417 1417 1419 1420 1419 1418 1420 1421 1423 1422 1422 1422 1423 1425 1426 1429 1435 1440 1444 1447 1450 1455 1459 1462 1463 1465 1467
1379 1382 1386 1391 1395 1396 1399 1403 1407 1410 1412 1413 1415 1417 1416 1417 1417 1419 1423 1421 1419 1420 1419 1419 1420 1421 1423 1423 1424 1426 1428 1431 1433 1437 1442 1448 1452 1453 1457 1460 1462 1463 1464
1384 1388 1390 1392 1396 1400 1403 1406 1408 1409 1409 1409 1410 1414 1416 1414 1417 1419 1424 1423 1422 1422 1421 1420 1421 1422 1423 1424 1426 1429 1432 1433 1434 1439 1441 1443 1447 1451 1453 1456 1458 1461 1463
1389 1392 1393 1395 1399 1404 1407 1408 1408 1410 1411 1414 1414 1416 1417 1416 1417 1419 1423 1421 1421 1421 1423 1423 1424 1425 1425 1426 1427 1428 1432 1433 1437 1438 1439 1441 1443 1447 1450 1453 1454 1456 1459